EW4363 Weather Reports


Display with metric or nautical units.
time (UTC)temp
F
wind
direction
speed
MPH
gust
MPH
rain 1hr
in
rain 24hr
in
rain mn
in
humidity
%
barometer
mb
20260505123304 73 325 3.0 6.0 0.00 0.10 0.01 48 1009.4
20260505122805 73 324 3.0 6.0 0.00 0.10 0.01 48 1009.5
20260505122305 73 319 1.0 5.0 0.00 0.10 0.01 50 1009.5
20260505121804 72 320 2.0 3.0 0.00 0.10 0.01 51 1009.6
20260505121304 71 322 2.0 3.0 0.00 0.10 0.01 52 1009.6
20260505120303 72 320 3.0 6.0 0.00 0.10 0.01 51 1009.7
20260505115804 72 325 2.0 5.0 0.00 0.10 0.01 51 1009.8
20260505115305 72 322 2.0 3.0 0.00 0.10 0.01 53 1009.8
20260505114304 70 323 2.0 6.0 0.00 0.10 0.01 58 1009.7
20260505113804 70 316 2.0 5.0 0.00 0.10 0.01 57 1009.9
20260505113304 70 320 1.0 6.0 0.00 0.10 0.01 56 1010.0
20260505112804 71 323 1.0 3.0 0.00 0.10 0.01 55 1010.0
20260505112305 70 311 1.0 3.0 0.00 0.10 0.01 56 1010.1
20260505111304 69 323 3.0 3.0 0.00 0.10 0.01 59 1010.3
20260505110804 69 323 2.0 3.0 0.00 0.10 0.01 58 1010.3
20260505110304 69 319 1.0 5.0 0.00 0.10 0.01 58 1010.3
20260505101304 64 283 1.0 3.0 0.00 0.10 0.01 65 1010.7
20260505100804 64 263 3.0 7.0 0.00 0.10 0.01 64 1010.7
20260505100305 64 260 2.0 5.0 0.00 0.10 0.01 64 1010.6
20260505095804 65 271 2.0 7.0 0.00 0.10 0.01 64 1010.4
20260505095305 65 277 2.0 5.0 0.00 0.10 0.01 65 1010.4
20260505094304 64 272 2.0 7.0 0.00 0.10 0.01 67 1010.5
20260505093805 63 264 2.0 9.0 0.00 0.10 0.01 69 1010.4
20260505093304 62 273 3.0 8.0 0.00 0.10 0.01 70 1010.5
20260505092804 62 277 3.0 7.0 0.00 0.10 0.01 72 1010.5
20260505092305 61 270 4.0 10.0 0.00 0.10 0.01 72 1010.6
20260505091803 60 274 2.0 6.0 0.00 0.10 0.01 74 1010.6
20260505091304 59 275 3.0 9.0 0.00 0.10 0.01 75 1010.6
20260505090804 59 272 4.0 9.0 0.00 0.10 0.01 75 1010.4
20260505090305 59 278 3.0 7.0 0.00 0.10 0.01 76 1010.4
20260505085804 58 278 3.0 12.0 0.00 0.10 0.01 76 1010.6
20260505085305 58 273 5.0 10.0 0.00 0.10 0.01 76 1010.8
20260505084804 58 278 3.0 7.0 0.00 0.10 0.01 76 1011.0
20260505084304 58 277 3.0 6.0 0.00 0.10 0.01 76 1011.2
20260505083804 58 278 4.0 12.0 0.00 0.10 0.01 77 1011.2
20260505083304 58 278 5.0 8.0 0.00 0.10 0.01 77 1011.2
20260505082805 58 279 4.0 8.0 0.00 0.10 0.01 77 1011.2
20260505082305 58 278 4.0 7.0 0.00 0.10 0.01 77 1011.2
20260505081804 58 276 3.0 8.0 0.00 0.10 0.01 76 1011.1
20260505081304 58 276 3.0 7.0 0.00 0.10 0.01 76 1010.9
20260505080804 58 276 6.0 12.0 0.00 0.10 0.01 76 1010.9
20260505080304 58 277 5.0 10.0 0.00 0.10 0.01 76 1010.8
20260505075804 58 278 5.0 10.0 0.00 0.10 0.01 76 1010.7
20260505075304 58 279 5.0 12.0 0.00 0.10 0.01 76 1010.7
20260505074305 58 276 6.0 12.0 0.00 0.10 0.01 77 1010.8
20260505073804 58 278 6.0 12.0 0.00 0.10 0.01 78 1010.8
20260505073304 58 277 7.0 10.0 0.00 0.10 0.01 78 1010.9
20260505072804 58 279 5.0 10.0 0.00 0.10 0.01 79 1011.0
20260505071804 57 276 3.0 10.0 0.00 0.10 0.01 80 1011.0
20260505071305 57 270 5.0 12.0 0.00 0.10 0.01 81 1011.0
20260505070805 56 269 5.0 9.0 0.00 0.10 0.01 82 1011.1
20260505070305 56 272 5.0 12.0 0.00 0.10 0.01 82 1011.1
20260505065804 56 277 6.0 10.0 0.00 0.10 0.01 83 1011.1
20260505065304 55 269 3.0 9.0 0.00 0.10 0.01 83 1011.1
20260505064804 55 277 3.0 6.0 0.00 0.10 0.01 84 1011.1
20260505064304 55 269 4.0 12.0 0.00 0.10 0.01 84 1011.1
20260505063804 55 279 2.0 10.0 0.00 0.10 0.01 84 1011.1
20260505062804 55 268 3.0 12.0 0.00 0.10 0.01 84 1010.9
20260505062305 55 274 5.0 12.0 0.00 0.10 0.01 85 1010.9
20260505061804 55 273 3.0 7.0 0.00 0.10 0.01 85 1010.9
20260505061304 54 266 3.0 10.0 0.00 0.10 0.01 86 1010.9
20260505060805 53 272 3.0 6.0 0.00 0.10 0.01 88 1010.9
20260505060305 53 265 2.0 7.0 0.00 0.10 0.01 89 1011.1
20260505055304 52 272 3.0 6.0 0.00 0.10 0.01 89 1011.2
20260505054804 52 252 0.0 3.0 0.00 0.10 0.01 90 1011.2
20260505054304 52 273 0.0 3.0 0.00 0.10 0.01 90 1011.2
20260505053804 52 267 2.0 7.0 0.00 0.10 0.01 90 1011.3
20260505053304 52 266 2.0 5.0 0.00 0.10 0.01 90 1011.2
20260505052805 52 272 2.0 6.0 0.00 0.10 0.01 90 1011.3
20260505052305 52 267 2.0 5.0 0.00 0.10 0.01 90 1011.2
20260505051804 52 262 1.0 5.0 0.00 0.10 0.01 90 1011.1
20260505051304 52 264 0.0 2.0 0.00 0.10 0.01 90 1010.8
20260505050804 52 265 1.0 2.0 0.00 0.10 0.01 90 1010.8
20260505041304 52 276 1.0 5.0 0.00 0.10 0.01 90 1011.3
20260505040305 52 295 1.0 3.0 0.00 0.10 0.01 91 1011.4
20260505035804 52 275 1.0 6.0 0.00 0.10 0.01 91 1011.3
20260505035304 52 269 2.0 6.0 0.00 0.10 0.01 90 1011.2
20260505034804 52 278 1.0 3.0 0.00 0.10 0.01 90 1011.2
20260505034304 52 266 1.0 3.0 0.00 0.10 0.01 90 1011.3
20260505033804 52 271 2.0 8.0 0.00 0.10 0.01 90 1011.3
20260505033304 52 269 2.0 6.0 0.00 0.10 0.01 90 1011.2
20260505032305 52 274 1.0 6.0 0.00 0.10 0.01 90 1011.3
20260505031804 52 271 1.0 3.0 0.00 0.10 0.01 91 1011.2
20260505031305 52 253 1.0 5.0 0.00 0.10 0.01 90 1011.2
20260505030805 52 273 1.0 6.0 0.00 0.10 0.01 91 1011.1
20260505030304 52 264 2.0 6.0 0.00 0.10 0.01 91 1011.1
20260505025805 52 281 2.0 5.0 0.00 0.10 0.01 91 1011.1
20260505025305 52 271 2.0 7.0 0.00 0.10 0.01 91 1011.0
20260505024304 53 275 2.0 7.0 0.00 0.10 0.01 91 1011.0
20260505023804 53 260 2.0 6.0 0.00 0.10 0.01 91 1011.0
20260505023304 53 265 1.0 6.0 0.00 0.10 0.01 91 1011.1
20260505022804 52 299 0.0 2.0 0.00 0.10 0.01 91 1011.1
20260505021804 53 272 0.0 1.0 0.00 0.10 0.01 90 1011.2
20260505020804 53 272 0.0 1.0 0.00 0.10 0.01 90 1011.1
20260505020305 53 276 1.0 3.0 0.00 0.10 0.01 90 1011.1
20260505015805 53 275 1.0 5.0 0.00 0.10 0.01 90 1011.1
20260505015305 54 274 1.0 8.0 0.00 0.10 0.01 90 1011.0
20260505014805 54 272 2.0 8.0 0.00 0.10 0.01 90 1010.9
20260505014305 54 283 2.0 6.0 0.00 0.10 0.01 90 1010.9
20260505013305 54 272 2.0 6.0 0.00 0.10 0.01 89 1011.0
20260505012804 54 274 0.0 2.0 0.01 0.10 0.01 89 1011.0
20260505012305 54 254 1.0 3.0 0.01 0.10 0.01 90 1011.0
20260505010803 54 272 1.0 5.0 0.01 0.10 0.01 90 1011.1
20260505010304 54 276 1.0 5.0 0.01 0.10 0.01 90 1011.2
20260505005803 54 271 2.0 5.0 0.01 0.10 0.01 90 1011.2
20260505005304 54 268 1.0 3.0 0.01 0.10 0.01 90 1011.3
20260505004804 54 276 1.0 5.0 0.01 0.10 0.01 90 1011.3
20260505004304 54 268 0.0 3.0 0.01 0.10 0.01 91 1011.3
20260505003803 54 277 2.0 3.0 0.01 0.10 0.01 91 1011.3
20260505003303 54 252 1.0 2.0 0.01 0.10 0.01 91 1011.3
20260505002304 54 269 0.0 1.0 0.00 0.09 0.00 92 1011.2
20260505001803 54 269 0.0 2.0 0.00 0.09 0.00 92 1011.3
20260505001304 54 265 1.0 3.0 0.00 0.09 0.00 92 1011.2
20260505000805 54 266 1.0 3.0 0.00 0.09 0.00 93 1011.2
20260504235803 53 322 0.0 1.0 0.00 0.09 0.00 93 1011.3
20260504234804 54 331 0.0 1.0 0.00 0.09 0.00 93 1011.5
20260504234303 54 330 0.0 1.0 0.00 0.09 0.00 93 1011.3
20260504233804 54 336 0.0 2.0 0.00 0.09 0.00 93 1011.3
20260504232804 54 269 0.0 0.0 0.00 0.09 0.00 93 1011.2
20260504231304 54 260 0.0 1.0 0.00 0.09 0.00 93 1011.2
20260504225804 55 330 0.0 0.0 0.00 0.09 0.00 93 1011.2
20260504225304 55 330 0.0 0.0 0.00 0.09 0.00 93 1011.2
20260504224804 55 330 0.0 1.0 0.00 0.09 0.00 93 1011.2
20260504224303 55 330 0.0 0.0 0.00 0.09 0.00 93 1011.2
20260504223804 55 330 0.0 0.0 0.00 0.09 0.00 93 1011.1
20260504223304 55 330 0.0 0.0 0.00 0.09 0.00 93 1011.1
20260504222803 55 330 0.0 1.0 0.00 0.09 0.00 93 1011.1
20260504222304 56 330 0.0 0.0 0.00 0.09 0.00 93 1011.0
20260504221804 56 330 0.0 0.0 0.00 0.09 0.00 93 1010.9
20260504221304 56 330 0.0 0.0 0.00 0.09 0.00 93 1010.9
20260504220811 56 330 0.0 0.0 0.00 0.09 0.00 93 1010.9
20260504220304 56 330 0.0 0.0 0.00 0.09 0.00 92 1010.9
20260504215804 56 330 0.0 0.0 0.00 0.09 0.09 92 1010.9
20260504214803 56 330 0.0 0.0 0.00 0.09 0.09 92 1010.9
20260504214303 56 330 0.0 0.0 0.00 0.09 0.09 91 1011.0
20260504213804 56 330 0.0 0.0 0.00 0.09 0.09 91 1010.9
20260504213303 57 330 0.0 0.0 0.00 0.09 0.09 91 1011.0
20260504212804 57 330 0.0 1.0 0.00 0.09 0.09 91 1010.9
20260504211803 57 318 0.0 1.0 0.01 0.09 0.09 90 1011.0
20260504205804 57 319 0.0 0.0 0.06 0.09 0.09 91 1011.0
20260504205304 57 319 0.0 1.0 0.07 0.09 0.09 90 1011.0
20260504204804 58 319 0.0 2.0 0.07 0.09 0.09 90 1010.9
20260504203804 58 328 0.0 0.0 0.07 0.09 0.09 90 1010.7
20260504203304 58 328 0.0 1.0 0.07 0.09 0.09 89 1010.7
20260504202305 58 323 1.0 3.0 0.07 0.09 0.09 87 1011.0
20260504201804 59 265 0.0 1.0 0.06 0.09 0.09 87 1011.1
20260504201304 59 279 0.0 3.0 0.05 0.07 0.07 85 1011.0
20260504200303 59 313 0.0 2.0 0.02 0.05 0.05 82 1011.2
20260504195804 60 321 1.0 3.0 0.01 0.03 0.03 81 1011.3
20260504195304 60 321 1.0 3.0 0.00 0.02 0.02 80 1011.4
20260504194805 61 306 1.0 3.0 0.00 0.02 0.02 79 1011.4
20260504194304 61 321 2.0 5.0 0.00 0.02 0.02 77 1011.3
20260504193804 62 334 2.0 6.0 0.00 0.02 0.02 74 1011.2
20260504193303 62 292 2.0 9.0 0.00 0.02 0.02 72 1011.1
20260504192804 63 291 2.0 7.0 0.00 0.02 0.02 71 1010.8
20260504191804 64 285 4.0 8.0 0.00 0.02 0.02 71 1010.3
20260504191304 64 252 0.0 2.0 0.00 0.02 0.02 78 1010.3
20260504190804 64 302 0.0 3.0 0.00 0.02 0.02 79 1010.3
20260504190304 64 327 0.0 3.0 0.00 0.02 0.02 80 1010.3
20260504185804 64 328 1.0 2.0 0.00 0.02 0.02 79 1010.2
20260504185304 64 313 0.0 2.0 0.00 0.02 0.02 79 1010.1
20260504184804 64 321 1.0 3.0 0.00 0.02 0.02 78 1010.0
20260504184305 65 324 1.0 3.0 0.00 0.02 0.02 78 1009.9
20260504183804 65 329 1.0 3.0 0.00 0.02 0.02 77 1009.8
20260504183304 65 308 1.0 3.0 0.00 0.02 0.02 77 1009.7
20260504182804 65 329 1.0 3.0 0.00 0.02 0.02 76 1009.7
20260504181803 65 312 1.0 3.0 0.00 0.02 0.02 75 1009.6
20260504181304 66 325 1.0 3.0 0.00 0.02 0.02 74 1009.4
20260504180804 66 329 1.0 3.0 0.00 0.02 0.02 74 1009.3
20260504175804 66 323 2.0 3.0 0.00 0.02 0.02 74 1009.1
20260504175304 66 326 1.0 3.0 0.00 0.02 0.02 74 1009.1
20260504174804 66 313 1.0 2.0 0.00 0.02 0.02 74 1009.1
20260504174304 66 324 2.0 3.0 0.00 0.02 0.02 73 1009.2
20260504173804 66 324 1.0 2.0 0.00 0.02 0.02 73 1009.1
20260504173304 67 321 1.0 2.0 0.00 0.02 0.02 73 1009.2
20260504172804 67 323 1.0 3.0 0.00 0.02 0.02 73 1009.3
20260504172304 67 324 2.0 3.0 0.00 0.02 0.02 72 1009.3
20260504171804 67 323 1.0 3.0 0.00 0.02 0.02 73 1009.3
20260504171304 67 326 0.0 3.0 0.00 0.02 0.02 72 1009.3
20260504170805 67 309 1.0 3.0 0.00 0.02 0.02 72 1009.4
20260504170304 67 329 0.0 0.0 0.00 0.02 0.02 72 1009.4
20260504160304 68 326 1.0 2.0 0.00 0.02 0.02 74 1009.6
20260504150304 66 327 0.0 3.0 0.02 0.02 0.02 80 1010.0
20260504141305 67 327 0.0 2.0 0.00 0.00 0.00 75 1010.2
20260504140804 67 317 1.0 3.0 0.00 0.00 0.00 74 1010.3
20260504140304 68 326 1.0 3.0 0.00 0.00 0.00 73 1010.3
20260504130804 69 314 2.0 7.0 0.00 0.00 0.00 72 1010.3
20260504130304 69 311 2.0 6.0 0.00 0.00 0.00 72 1010.2